SL-14 R/B

Satellite information

Favourite Embed

Satellite Type and Status

ROCKET BODYIN ORBIT

Key statistics

Satellite SL-14 R/B at a glance.

Uptime

14947

Days in orbit

Revolutions

≈ 14.9

Per day

Orbit

LEO

Low Earth Orbit

Inclination

82.5

Latest

Satellite identification and parameters

Extended collection of information and parameters for SL-14 R/B.

Object identification

Identified? True

Debris? False

Object name: SL-14 R/B

International designator: 1984-105B

Object number (NORAD): 15332

Object ID (CCSDS): 15332

Country: COMMONWEALTH OF INDEPENDENT STATES (CIS)

Current information (Y/N): Y

RCS size: LARGE

Orbital parameters

Period: 96.933 minutes

Inclination: 82.5303 deg

SMA: 6989.977 km

Apoapsis: 625.636 km

Periapsis: 598.049 km

RAAN: 264.7012 deg

Eccentricy: 0.00197331

Argument of periapsis: 196.5965 deg

Mean anomaly: 336.7304 deg

Mean motion: 14.85556334 rev/day

Mean motion (dot): 0.00000607 rev/day2

B* drag term: 0.000067262294 1/REarth

Two-line elements (TLE)

Creation date: Aug. 31, 2025, 2:26 a.m.

Reference frame: TEME

Reference center: EARTH

Epoch: Aug. 30, 2025, 7:07 p.m. UTC

TLE line 0: 0 SL-14 R/B

TLE line 1: 1 15332U 84105B 25242.79653244 .00000607 00000-0 67262-4 0 9997

TLE line 2: 2 15332 82.5303 264.7012 0019733 196.5965 336.7304 14.85556334189876

Live tracking on map

Real-time ground track for satellite SL-14 R/B.

In-orbit conjunctions

A list of the most updated potential collisions computed for object SL-14 R/B.

Target Orbit TCA Probability of collision Miss distance Type
AZUR (GRS A) SSO 2025-08-10 19:28:38 0.0007279729 773.0 (m) PAYLOAD
COSMOS 2251 DEB LEO 2024-07-30 03:51:26 0.0001054557 560.0 (m) DEBRIS

Associated space launch

Experimental ocean-monitoring satellite

SL-14 R/B was lifted into orbit during the mission ‘Tsiklon-3 | Okean-OE 2’, on board a Tsiklon-3 space rocket.

The launch took place on Sept. 28, 1984, 6 a.m. from 32/2.

For more information about the launch, click the button.

Launch to space Tsiklon-3 | Okean-OE 2
Tsiklon-3 | Okean-OE 2

Agency: N/A

Status: Launch Successful

Launch date: Sept. 28, 1984, 6 a.m. UTC

Rocket: Tsiklon-3

Launch pad: 32/2

Location: Plesetsk Cosmodrome, Russian Federation

...

Latest news about this satellite

There are no fresh news available about this satellite. Check back as we update our databases every day.


Newsletter sign-up

Weekly statistics, charts and insights to help you stay on top of the space industry.